Tracking 28790 objects as of 19-Apr-2024
HD Live streaming from Space Station
objects crossing your sky now

COSMOS 2523

Track COSMOS 2523 now!
10-day predictions


NORAD ID: 42986
Int'l Code: 2017-037E
Perigee: 553.4 km
Apogee: 655.6 km
Inclination: 97.6 °
Period: 96.6 minutes
Semi major axis: 6975 km
RCS: Unknown
Launch date: June 23, 2017
Source: Commonwealth of Independent States (former USSR) (CIS)
Launch site: PLESETSK MISSILE AND SPACE COMPLEX (PKMTR)
Your satellite tracking list
Your tracking list is empty




NASA's NSSDC Master Catalog

Two Line Element Set (TLE):
1 42986U 17037E   24110.53534145  .00004890  00000-0  48531-3 0  9990
2 42986  97.5629 146.3309 0073270 348.7590  11.1988 14.90186862351271
Source of the keplerian elements: AFSPC